1497049200.81,53427,20.56,74142.3,3.25,-27.29,-27.89,0,*74
1497049202.03,53428,20.56,74144.5,3.25,-27.23,-27.77,0,*70
1497049203.25,53429,20.56,74144.8,3.25,-27.39,-27.77,0,*7A
1497049204.47,53430,20.63,74144.5,3.25,-27.45,-27.93,0,*73
1497049205.69,53431,20.56,74142.5,3.25,-27.61,-27.93,0,*74
1497049206.92,53432,20.56,74142.8,3.25,-27.39,-27.89,0,*71
1497049208.13,53433,20.56,74144.3,3.25,-27.23,-27.77,0,*7A
1497049209.34,53434,20.56,74142.5,3.21,-27.29,-27.89,0,*72
1497049210.58,53435,20.56,74144.3,3.21,-27.35,-27.83,0,*74
1497049211.8,53436,20.56,74144.8,3.25,-27.39,-27.93,0,*7E
1497049213.02,53437,20.56,74140.5,3.25,-27.39,-27.89,0,*74
1497049214.25,53438,20.56,74140.5,3.21,-27.51,-27.99,0,*70
1497049215.51,53439,20.63,74144.8,3.21,-27.61,-28.09,0,*74
1497049216.72,53440,20.56,74142.0,3.25,-27.39,-27.93,0,*7F
1497049217.97,53441,20.63,74144.8,3.21,-27.19,-27.61,0,*75
1497049219.22,53442,20.56,74140.8,3.21,-27.45,-27.83,0,*73
1497049220.44,53443,20.56,74144.0,3.25,-27.45,-27.93,0,*77
1497049221.66,53444,20.56,74142.5,3.25,-27.39,-27.89,0,*70
1497049222.88,53445,20.56,74142.8,3.25,-27.23,-27.77,0,*7B
1497049224.08,53446,20.63,74144.8,3.25,-27.29,-27.77,0,*72
1497049225.27,53447,20.56,74142.8,3.25,-27.29,-27.77,0,*73
1497049226.5,53448,20.56,74144.5,3.25,-27.45,-27.93,0,*7C
1497049227.7,53449,20.56,74142.0,3.25,-27.29,-27.89,0,*7C
1497049228.9,53450,20.56,74140.5,3.25,-27.29,-27.89,0,*74
1497049230.09,53451,20.56,74144.0,3.21,-27.13,-27.55,0,*79
1497049231.31,53452,20.56,74140.3,3.25,-27.23,-27.55,0,*7D
1497049232.54,53453,20.56,74142.8,3.25,-27.07,-27.61,0,*7D
1497049233.74,53454,20.56,74140.0,3.25,-27.29,-27.89,0,*70
1497049234.94,53455,20.56,74140.8,3.21,-27.13,-27.51,0,*79
1497049236.13,53456,20.63,74146.3,3.25,-27.13,-27.55,0,*7A
1497049237.33,53457,20.56,74142.5,3.21,-27.29,-27.77,0,*76
1497049238.53,53458,20.56,74140.5,3.25,-27.13,-27.55,0,*74
1497049239.75,53459,20.63,74144.3,3.27,-27.29,-27.71,0,*78
1497049240.96,53460,20.56,74146.3,3.25,-27.29,-27.89,0,*77
1497049242.18,53461,20.56,74142.3,3.25,-27.45,-27.93,0,*77
1497049243.42,53462,20.56,74146.3,3.25,-27.45,-28.05,0,*74
1497049244.64,53463,20.56,74140.8,3.25,-27.39,-27.71,0,*72
1497049245.89,53464,20.56,74140.5,3.27,-27.23,-27.71,0,*7C
1497049247.11,53465,20.56,74142.5,3.25,-27.23,-27.77,0,*79
1497049248.35,53466,20.56,74140.3,3.21,-27.35,-27.83,0,*72
1497049249.55,53467,20.56,74142.3,3.25,-27.07,-27.55,0,*7D
1497049250.77,53468,20.56,74140.8,3.25,-27.03,-27.39,0,*7C
1497049252.0,53469,20.56,74144.0,3.25,-27.45,-27.89,0,*74
1497049253.22,53470,20.56,74140.0,3.25,-27.39,-27.89,0,*77
1497049254.42,53471,20.56,74140.0,3.25,-27.29,-27.77,0,*76
1497049255.61,53472,20.56,74138.8,3.25,-27.13,-27.55,0,*7C
1497049256.84,53473,20.56,74142.8,3.27,-27.29,-27.89,0,*77
1497049258.06,53474,20.56,74140.5,3.27,-27.29,-27.89,0,*70
1497049259.31,53475,20.56,74140.8,3.27,-27.39,-27.89,0,*70
1497049260.56,53476,20.56,74142.3,3.27,-27.39,-27.89,0,*73
1497049261.8,53477,20.56,74140.5,3.27,-27.03,-27.45,0,*7B
1497049263.02,53478,20.56,74140.0,3.27,-27.29,-27.77,0,*7D
1497049264.25,53479,20.56,74140.8,3.27,-27.29,-27.77,0,*7C
1497049265.47,53480,20.56,74142.8,3.27,-27.29,-27.77,0,*7A
1497049266.7,53481,20.56,74144.3,3.27,-27.29,-27.89,0,*7A
1497049267.95,53482,20.56,74142.8,3.27,-27.45,-27.93,0,*78
1497049269.19,53483,20.56,74138.3,3.27,-27.45,-27.93,0,*79
1497049270.44,53484,20.56,74136.0,3.27,-27.45,-27.93,0,*7E
1497049271.67,53485,20.56,74142.8,3.27,-27.29,-27.89,0,*7E
1497049272.94,53486,20.56,74140.8,3.27,-27.23,-27.61,0,*71
1497049274.13,53487,20.56,74142.5,3.25,-27.13,-27.71,0,*70
1497049275.38,53488,20.56,74138.3,3.25,-27.23,-27.61,0,*7D
1497049276.6,53489,20.56,74142.8,3.29,-27.35,-27.89,0,*71
1497049277.82,53490,20.56,74142.3,3.25,-27.39,-27.77,0,*78
1497049279.02,53491,20.56,74140.8,3.25,-27.29,-27.77,0,*78
1497049280.24,53492,20.56,74140.3,3.27,-27.29,-27.71,0,*7F
1497049281.47,53493,20.56,74140.8,3.27,-27.29,-27.77,0,*78
1497049282.7,53494,20.56,74138.8,3.27,-27.29,-27.71,0,*79
1497049283.94,53495,20.56,74138.8,3.27,-27.13,-27.61,0,*70
1497049285.17,53496,20.56,74138.8,3.27,-27.29,-27.71,0,*7B
1497049286.39,53497,20.56,74142.0,3.27,-27.29,-27.77,0,*7C
1497049287.62,53498,20.56,74142.3,3.27,-27.29,-27.89,0,*72
1497049288.87,53499,20.56,74140.0,3.27,-27.23,-27.71,0,*7E
1497049290.09,53500,20.56,74142.8,3.27,-27.29,-27.93,0,*79
1497049291.31,53501,20.56,74142.8,3.27,-27.07,-27.55,0,*7E
1497049292.54,53502,20.56,74140.5,3.29,-27.23,-27.89,0,*74
1497049293.79,53503,20.56,74136.3,3.27,-27.39,-27.89,0,*70
1497049295.01,53504,20.56,74140.8,3.29,-27.19,-27.55,0,*7A
1497049296.22,53505,20.56,74140.3,3.29,-27.07,-27.67,0,*75
1497049297.44,53506,20.56,74142.0,3.27,-27.29,-27.77,0,*75
1497049298.66,53507,20.56,74140.0,3.29,-27.19,-27.67,0,*78
1497049299.91,53508,20.56,74142.3,3.29,-27.35,-27.83,0,*73
1497049301.14,53509,20.63,74144.5,3.29,-27.39,-27.89,0,*74
1497049302.38,53510,20.56,74140.0,3.29,-27.35,-27.83,0,*7A
1497049303.63,53511,20.56,74138.3,3.27,-27.39,-27.89,0,*73
1497049304.9,53512,20.56,74140.0,3.27,-27.39,-27.83,0,*7A
1497049306.15,53513,20.56,74140.0,3.29,-27.35,-27.83,0,*79
1497049307.38,53514,20.56,74142.8,3.29,-27.13,-27.61,0,*76
1497049308.6,53515,20.56,74138.3,3.29,-27.19,-27.67,0,*7B
1497049309.83,53516,20.56,74136.5,3.27,-27.29,-27.89,0,*75
1497049311.08,53517,20.56,74136.8,3.29,-27.23,-27.83,0,*7A
1497049312.32,53518,20.56,74142.0,3.27,-27.23,-27.71,0,*76
1497049313.57,53519,20.56,74136.8,3.27,-27.39,-27.89,0,*7B
1497049314.82,53520,20.56,74138.8,3.29,-27.39,-27.99,0,*7E
1497049316.05,53521,20.56,74142.5,3.27,-27.29,-27.71,0,*76
1497049317.28,53522,20.56,74140.0,3.29,-27.23,-27.67,0,*76
1497049318.5,53523,20.56,74140.5,3.27,-27.29,-27.77,0,*72
1497049319.73,53524,20.56,74138.3,3.29,-27.23,-27.89,0,*70
1497049320.96,53525,20.56,74140.5,3.27,-27.29,-27.71,0,*72
1497049322.17,53526,20.56,74140.5,3.27,-27.13,-27.71,0,*78
1497049323.39,53527,20.56,74140.8,3.29,-27.19,-27.55,0,*7B
1497049324.61,53528,20.56,74138.5,3.29,-27.19,-27.55,0,*74
1497049325.86,53529,20.56,74138.8,3.27,-27.45,-27.93,0,*78
1497049327.09,53530,20.56,74142.5,3.29,-27.23,-27.67,0,*75
1497049328.29,53531,20.56,74138.3,3.29,-27.51,-27.89,0,*71
1497049329.51,53532,20.56,74140.0,3.29,-27.35,-27.71,0,*77
1497049330.74,53533,20.56,74142.0,3.29,-27.23,-27.71,0,*71
1497049331.99,53534,20.56,74136.3,3.29,-27.39,-27.99,0,*7B
1497049333.24,53535,20.56,74140.5,3.29,-27.23,-27.83,0,*7A
1497049334.47,53536,20.56,74136.5,3.29,-27.23,-27.71,0,*74
1497049335.71,53537,20.56,74142.0,3.27,-27.45,-27.77,0,*7D
1497049336.94,53538,20.56,74140.5,3.29,-27.35,-27.89,0,*7A
1497049338.16,53539,20.56,74140.0,3.27,-27.13,-27.71,0,*76
1497049339.41,53540,20.56,74140.3,3.29,-27.23,-27.83,0,*78
1497049340.63,53541,20.56,74140.3,3.29,-27.23,-27.89,0,*73
1497049341.86,53542,20.56,74142.3,3.29,-27.35,-27.71,0,*70
1497049343.1,53543,20.56,74142.3,3.29,-27.35,-27.83,0,*7C
1497049344.33,53544,20.56,74140.5,3.29,-27.23,-27.67,0,*76
1497049345.58,53545,20.56,74142.8,3.29,-27.19,-27.83,0,*74
1497049346.79,53546,20.56,74140.5,3.27,-27.13,-27.71,0,*7E
1497049348.02,53547,20.56,74136.3,3.29,-27.35,-27.71,0,*75
1497049349.24,53548,20.56,74142.3,3.29,-27.19,-27.67,0,*73
1497049350.49,53549,20.56,74142.3,3.29,-27.35,-27.83,0,*76
1497049351.74,53550,20.56,74142.3,3.27,-27.39,-27.89,0,*76
1497049352.95,53551,20.56,74142.0,3.29,-27.19,-27.71,0,*7C
1497049354.17,53552,20.56,74136.8,3.29,-27.19,-27.55,0,*79
1497049355.4,53553,20.56,74142.3,3.29,-27.23,-27.67,0,*70
1497049356.65,53554,20.56,74140.8,3.29,-27.35,-27.83,0,*7A
1497049357.87,53555,20.56,74136.0,3.29,-27.35,-27.71,0,*76
1497049359.1,53556,20.56,74138.3,3.29,-27.23,-27.71,0,*72
1497049360.32,53557,20.56,74138.8,3.29,-27.23,-27.55,0,*75
1497049361.52,53558,20.56,74138.3,3.29,-27.03,-27.55,0,*78
1497049362.77,53559,20.56,74138.5,3.31,-27.39,-27.89,0,*78
1497049364.0,53560,20.56,74138.5,3.31,-27.07,-27.51,0,*7A
1497049365.24,53561,20.56,74138.0,3.31,-27.23,-27.71,0,*7F
1497049366.49,53562,20.56,74138.5,3.31,-27.23,-27.67,0,*7B
1497049367.74,53563,20.56,74138.0,3.29,-27.23,-27.83,0,*79
1497049368.96,53564,20.56,74136.5,3.29,-27.35,-27.71,0,*74
1497049370.23,53565,20.56,74138.8,3.31,-27.23,-27.83,0,*76
1497049371.49,53566,20.56,74140.0,3.29,-27.23,-27.83,0,*7C
1497049372.71,53567,20.56,74140.3,3.29,-27.23,-27.71,0,*70
1497049373.93,53568,20.56,74138.5,3.29,-27.19,-27.55,0,*70
1497049375.13,53569,20.56,74132.0,3.29,-27.07,-27.55,0,*7E
1497049376.36,53570,20.56,74136.3,3.29,-27.03,-27.39,0,*78
1497049377.56,53571,20.56,74140.5,3.29,-27.07,-27.51,0,*73
1497049378.81,53572,20.56,74140.5,3.29,-27.39,-27.83,0,*72
1497049380.04,53573,20.56,74142.0,3.29,-27.23,-27.67,0,*72
1497049381.29,53574,20.56,74138.0,3.31,-27.23,-27.71,0,*7B
1497049382.54,53575,20.56,74138.3,3.29,-27.23,-27.83,0,*7E
1497049383.79,53576,20.56,74136.5,3.31,-27.55,-27.99,0,*7E
1497049385.01,53577,20.56,74136.3,3.29,-27.35,-27.89,0,*71
1497049386.26,53578,20.56,74136.0,3.31,-27.19,-27.67,0,*79
1497049387.5,53579,20.56,74142.0,3.31,-27.39,-27.89,0,*7A
1497049388.77,53580,20.56,74140.3,3.31,-27.19,-27.83,0,*74
1497049390.01,53581,20.56,74136.0,3.31,-27.23,-27.71,0,*71
1497049391.26,53582,20.56,74138.3,3.31,-27.23,-27.71,0,*72
1497049392.53,53583,20.56,74138.5,3.33,-27.19,-27.61,0,*79
1497049393.79,53584,20.56,74136.8,3.31,-26.97,-27.51,0,*78
1497049395.06,53585,20.56,74138.3,3.33,-27.19,-27.61,0,*7F
1497049396.3,53586,20.56,74142.3,3.31,-27.19,-27.71,0,*7F
1497049397.55,53587,20.56,74142.8,3.31,-27.23,-27.71,0,*77
1497049398.77,53588,20.56,74138.8,3.31,-27.03,-27.51,0,*78
1497049400.02,53589,20.56,74138.3,3.31,-27.39,-27.89,0,*75
1497049401.27,53590,20.56,74138.8,3.33,-27.13,-27.61,0,*71
1497049402.52,53591,20.56,74136.8,3.31,-27.23,-27.89,0,*77
1497049403.76,53592,20.56,74136.3,3.31,-27.35,-27.89,0,*73
1497049405.01,53593,20.56,74138.3,3.31,-27.39,-27.89,0,*7E
1497049406.26,53594,20.56,74136.3,3.31,-27.19,-27.67,0,*7B
1497049407.5,53595,20.56,74138.8,3.31,-27.39,-27.89,0,*78
1497049408.75,53596,20.56,74138.0,3.31,-27.23,-27.71,0,*77
1497049410.0,53597,20.56,74140.5,3.31,-27.23,-27.71,0,*76
1497049411.24,53598,20.56,74140.0,3.31,-27.23,-27.55,0,*7F
1497049412.51,53599,20.56,74136.0,3.31,-27.39,-27.83,0,*7E
1497049413.76,53600,20.56,74136.5,3.31,-27.35,-27.89,0,*7B
1497049415.03,53601,20.56,74136.0,3.31,-27.23,-27.83,0,*77
1497049416.28,53602,20.56,74138.3,3.33,-27.13,-27.61,0,*79
1497049417.55,53603,20.56,74136.8,3.31,-27.23,-27.83,0,*75
1497049418.83,53604,20.56,74138.8,3.33,-27.19,-27.83,0,*79
1497049420.07,53605,20.56,74138.8,3.31,-27.51,-27.99,0,*7D
1497049421.34,53606,20.56,74136.8,3.31,-27.23,-27.83,0,*70
1497049422.59,53607,20.56,74136.5,3.31,-27.51,-27.99,0,*7F
1497049423.87,53608,20.56,74138.8,3.31,-27.39,-27.99,0,*7E
1497049425.14,53609,20.56,74136.0,3.31,-27.23,-27.83,0,*7F
1497049426.41,53610,20.56,74134.3,3.31,-27.39,-27.83,0,*7C
1497049427.66,53611,20.56,74140.0,3.31,-27.23,-27.89,0,*7C
1497049428.91,53612,20.56,74136.5,3.33,-27.19,-27.67,0,*74
1497049430.14,53613,20.56,74136.5,3.33,-27.13,-27.51,0,*7A
1497049431.38,53614,20.56,74138.5,3.33,-27.19,-27.77,0,*73
1497049432.63,53615,20.56,74136.8,3.31,-27.39,-27.89,0,*73
1497049433.88,53616,20.56,74138.0,3.31,-27.23,-27.71,0,*7C
1497049435.1,53617,20.56,74136.0,3.31,-27.07,-27.55,0,*7D
1497049436.35,53618,20.56,74134.8,3.31,-26.87,-27.35,0,*7D
1497049437.55,53619,20.56,74138.5,3.35,-27.13,-27.71,0,*74
1497049438.8,53620,20.56,74142.3,3.33,-27.19,-27.67,0,*75
1497049440.03,53621,20.56,74138.8,3.33,-27.29,-27.77,0,*76
1497049441.28,53622,20.56,74136.3,3.31,-27.03,-27.35,0,*79
1497049442.53,53623,20.56,74140.8,3.33,-27.19,-27.67,0,*76
1497049443.82,53624,20.56,74134.3,3.33,-27.45,-27.99,0,*79
1497049445.09,53625,20.56,74136.0,3.31,-27.35,-27.83,0,*76
1497049446.33,53626,20.56,74138.8,3.31,-27.19,-27.67,0,*71
1497049447.58,53627,20.56,74136.8,3.33,-27.13,-27.45,0,*78
1497049448.81,53628,20.56,74140.5,3.35,-27.07,-27.61,0,*72
1497049450.08,53629,20.56,74134.8,3.31,-27.35,-27.83,0,*7A
1497049451.33,53630,20.56,74136.3,3.33,-27.19,-27.67,0,*74
1497049452.57,53631,20.56,74136.8,3.33,-27.29,-27.67,0,*76
1497049453.77,53632,20.56,74138.0,3.35,-27.07,-27.51,0,*7A
1497049455.05,53633,20.56,74138.3,3.33,-27.19,-27.83,0,*7D
1497049456.28,53634,20.56,74136.8,3.33,-27.29,-27.77,0,*72
1497049457.53,53635,20.56,74138.0,3.33,-27.35,-27.77,0,*7E
1497049458.74,53636,20.56,74136.3,3.35,-27.29,-27.77,0,*76
1497049459.96,53637,20.56,74138.0,3.35,-27.07,-27.45,0,*7A
1497049461.21,53638,20.56,74136.3,3.33,-27.35,-27.77,0,*73
1497049462.46,53639,20.56,74138.3,3.33,-27.35,-27.77,0,*72
1497049463.71,53640,20.56,74136.5,3.33,-27.19,-27.77,0,*72
1497049464.96,53641,20.56,74136.5,3.33,-27.35,-27.93,0,*77
1497049466.18,53642,20.56,74138.3,3.31,-27.51,-27.89,0,*7F
1497049467.4,53643,20.56,74136.5,3.31,-27.55,-27.89,0,*7A
1497049468.66,53644,20.56,74136.0,3.35,-26.97,-27.45,0,*76
1497049469.86,53645,20.56,74134.3,3.35,-27.13,-27.71,0,*7D
1497049471.06,53646,20.56,74138.3,3.35,-27.13,-27.55,0,*78
1497049472.26,53647,20.56,74138.0,3.35,-27.29,-27.77,0,*70
1497049473.47,53648,20.56,74138.8,3.35,-27.29,-27.89,0,*7E
1497049474.71,53649,20.56,74134.5,3.33,-27.29,-27.77,0,*78
1497049475.96,53650,20.56,74134.8,3.33,-27.35,-27.77,0,*7D
1497049477.23,53651,20.56,74136.8,3.33,-27.35,-27.83,0,*77
1497049478.49,53652,20.56,74138.5,3.33,-27.29,-27.83,0,*79
1497049479.74,53653,20.56,74134.0,3.31,-27.35,-27.89,0,*7D
1497049480.99,53654,20.56,74136.3,3.33,-27.19,-27.67,0,*76
1497049482.23,53655,20.56,74134.8,3.31,-27.35,-27.67,0,*7B
1497049483.48,53656,20.56,74136.0,3.33,-27.35,-27.93,0,*71
1497049484.72,53657,20.56,74132.5,3.33,-27.29,-27.93,0,*7D
1497049485.96,53658,20.56,74138.5,3.31,-27.23,-27.71,0,*76
1497049487.23,53659,20.56,74136.5,3.31,-27.23,-27.83,0,*7A
1497049488.47,53660,20.56,74136.0,3.33,-27.29,-27.77,0,*73
1497049489.73,53661,20.56,74134.0,3.33,-27.29,-27.83,0,*79
1497049490.96,53662,20.56,74138.0,3.33,-27.29,-27.77,0,*71
1497049492.22,53663,20.56,74138.5,3.33,-27.29,-27.83,0,*7B
1497049493.48,53664,20.56,74136.3,3.33,-27.29,-27.83,0,*7C
1497049494.71,53665,20.56,74138.5,3.33,-27.51,-27.93,0,*73
1497049495.93,53666,20.56,74136.8,3.33,-27.13,-27.51,0,*78
1497049497.19,53667,20.56,74136.5,3.33,-27.03,-27.35,0,*7A
1497049498.42,53668,20.56,74134.0,3.35,-27.23,-27.77,0,*77
1497049499.64,53669,20.56,74136.8,3.35,-27.23,-27.71,0,*70
1497049500.92,53670,20.56,74138.8,3.33,-27.45,-27.83,0,*73
1497049502.21,53671,20.56,74138.8,3.33,-27.45,-27.99,0,*79
1497049503.46,53672,20.56,74136.5,3.33,-27.45,-27.93,0,*70
1497049504.7,53673,20.56,74136.3,3.33,-27.29,-27.77,0,*71
1497049505.94,53674,20.56,74136.0,3.31,-27.39,-27.93,0,*7F
1497049507.17,53675,20.56,74138.0,3.33,-27.29,-27.77,0,*77
1497049508.41,53676,20.56,74136.5,3.33,-27.13,-27.67,0,*7C
1497049509.63,53677,20.56,74138.5,3.33,-27.13,-27.51,0,*78
1497049510.91,53678,20.56,74136.3,3.33,-27.35,-27.83,0,*7C
1497049512.18,53679,20.56,74138.0,3.33,-27.35,-27.83,0,*7D
1497049513.41,53680,20.56,74136.0,3.33,-27.51,-27.93,0,*78
1497049514.69,53681,20.56,74138.3,3.33,-27.35,-27.83,0,*7A
1497049515.94,53682,20.56,74136.5,3.33,-27.35,-27.77,0,*72
1497049517.21,53683,20.56,74136.5,3.31,-27.23,-27.83,0,*7D
1497049518.46,53684,20.56,74134.8,3.33,-27.35,-27.77,0,*74
1497049519.71,53685,20.56,74138.8,3.33,-27.03,-27.61,0,*77
1497049520.99,53686,20.56,74134.5,3.33,-27.19,-27.83,0,*73
1497049522.22,53687,20.56,74142.3,3.33,-27.29,-27.77,0,*7A
1497049523.44,53688,20.56,74138.3,3.35,-27.13,-27.45,0,*7B
1497049524.67,53689,20.56,74136.8,3.35,-27.13,-27.61,0,*7C
1497049525.9,53690,20.56,74134.8,3.35,-27.07,-27.45,0,*77
1497049527.15,53691,20.56,74138.8,3.35,-26.97,-27.45,0,*7E
1497049528.36,53692,20.56,74136.5,3.35,-27.29,-27.89,0,*79
1497049529.59,53693,20.56,74136.8,3.35,-27.39,-27.89,0,*79
1497049530.8,53694,20.56,74136.3,3.35,-27.29,-27.77,0,*7E
1497049532.05,53695,20.56,74138.0,3.35,-27.23,-27.61,0,*72
1497049533.27,53696,20.56,74136.0,3.35,-27.13,-27.45,0,*74
1497049534.5,53697,20.56,74136.5,3.35,-27.23,-27.77,0,*77
1497049535.72,53698,20.56,74138.8,3.35,-27.23,-27.77,0,*78
1497049536.98,53699,20.56,74136.5,3.33,-27.29,-27.83,0,*7E
1497049538.21,53700,20.56,74138.8,3.35,-27.13,-27.61,0,*7C
1497049539.44,53701,20.56,74134.8,3.33,-27.29,-27.77,0,*75
1497049540.69,53702,20.56,74138.8,3.33,-27.19,-27.67,0,*74
1497049541.92,53703,20.56,74136.8,3.35,-27.23,-27.71,0,*7D
1497049543.13,53704,20.56,74134.5,3.35,-27.29,-27.77,0,*76
1497049544.36,53705,20.56,74136.0,3.35,-27.39,-27.89,0,*77
1497049545.56,53706,20.56,74136.5,3.35,-27.29,-27.77,0,*74
1497049546.79,53707,20.56,74134.8,3.35,-27.39,-27.77,0,*74
1497049548.04,53708,20.56,74136.0,3.37,-27.39,-27.77,0,*79
1497049549.29,53709,20.56,74136.5,3.37,-27.23,-27.77,0,*73
1497049550.51,53710,20.56,74140.3,3.35,-27.23,-27.71,0,*7F
1497049551.72,53711,20.56,74138.8,3.35,-27.29,-27.77,0,*72
1497049552.92,53712,20.56,74138.5,3.35,-27.13,-27.71,0,*7E
1497049554.15,53713,20.56,74136.0,3.35,-27.39,-27.89,0,*70
1497049555.38,53714,20.56,74136.3,3.35,-27.39,-27.93,0,*7C
1497049556.62,53715,20.56,74132.8,3.33,-27.19,-27.77,0,*73
1497049557.86,53716,20.56,74138.0,3.33,-27.29,-27.67,0,*72
1497049559.11,53717,20.56,74136.5,3.33,-27.35,-27.93,0,*75
1497049560.34,53718,20.56,74136.3,3.35,-27.39,-27.89,0,*7B
1497049561.57,53719,20.56,74136.3,3.33,-27.13,-27.67,0,*74
1497049562.8,53720,20.56,74136.5,3.35,-27.23,-27.89,0,*7B
1497049564.01,53721,20.56,74136.0,3.35,-27.29,-27.71,0,*77
1497049565.21,53722,20.56,74136.0,3.35,-27.29,-27.77,0,*72
1497049566.47,53723,20.56,74136.5,3.35,-27.23,-27.61,0,*7E
1497049567.69,53724,20.56,74134.8,3.35,-27.23,-27.55,0,*7E
1497049568.9,53725,20.56,74134.8,3.35,-27.29,-27.77,0,*75
1497049570.12,53726,20.56,74138.3,3.35,-27.39,-27.77,0,*77
1497049571.35,53727,20.56,74136.8,3.35,-27.55,-28.09,0,*7A
1497049572.58,53728,20.56,74138.0,3.35,-27.39,-27.89,0,*78
1497049573.81,53729,20.56,74136.3,3.35,-27.23,-27.71,0,*75
1497049575.04,53730,20.56,74134.5,3.35,-27.23,-27.71,0,*7D
1497049576.27,53731,20.56,74138.3,3.35,-27.45,-27.89,0,*7B
1497049577.52,53732,20.56,74136.8,3.37,-27.45,-27.93,0,*71
1497049578.72,53733,20.56,74136.0,3.35,-27.29,-27.77,0,*72
1497049579.95,53734,20.56,74136.5,3.33,-27.51,-27.93,0,*76
1497049581.21,53735,20.56,74138.3,3.33,-27.45,-27.93,0,*72
1497049582.49,53736,20.56,74136.0,3.33,-27.35,-27.99,0,*7C
1497049583.74,53737,20.56,74136.3,3.33,-27.35,-27.93,0,*77
1497049585.0,53738,20.56,74136.3,3.33,-27.29,-27.83,0,*74
1497049586.25,53739,20.56,74134.8,3.33,-27.29,-27.83,0,*75
1497049587.5,53740,20.56,74134.3,3.33,-27.19,-27.77,0,*73
1497049588.75,53741,20.56,74136.5,3.33,-27.35,-27.77,0,*7C
1497049590.03,53742,20.56,74136.0,3.33,-27.35,-27.83,0,*74
1497049591.31,53743,20.56,74136.5,3.33,-27.45,-27.83,0,*72
1497049592.58,53744,20.56,74138.0,3.33,-27.35,-27.83,0,*72
1497049593.81,53745,20.56,74134.8,3.35,-27.13,-27.61,0,*7D
1497049595.06,53746,20.56,74136.5,3.35,-27.23,-27.61,0,*7D
1497049596.27,53747,20.56,74138.3,3.35,-27.29,-27.89,0,*70
1497049597.5,53748,20.56,74136.0,3.35,-27.39,-27.77,0,*7F
1497049598.76,53749,20.56,74136.0,3.33,-27.51,-27.99,0,*76
1497049600.02,53750,20.56,74136.5,3.33,-27.29,-27.83,0,*7A
1497049601.24,53751,20.56,74138.0,3.31,-27.51,-27.89,0,*7C
1497049602.47,53752,20.56,74136.5,3.35,-27.45,-27.89,0,*7E
1497049603.7,53753,20.56,74138.3,3.35,-27.39,-27.89,0,*74
1497049604.96,53754,20.56,74136.0,3.33,-27.29,-27.83,0,*7E
1497049606.19,53755,20.56,74136.0,3.33,-27.29,-27.77,0,*74
1497049607.45,53756,20.56,74136.3,3.33,-27.29,-27.83,0,*7C
1497049608.68,53757,20.56,74138.8,3.33,-27.51,-27.93,0,*73
1497049609.93,53758,20.56,74138.3,3.33,-27.35,-27.93,0,*7E
1497049611.18,53759,20.56,74138.3,3.31,-27.51,-27.99,0,*75
1497049612.44,53760,20.56,74138.3,3.33,-27.45,-27.89,0,*79
1497049613.69,53761,20.56,74136.0,3.33,-27.51,-27.99,0,*7C
1497049614.95,53762,20.56,74136.0,3.33,-27.45,-27.93,0,*70
1497049616.17,53763,20.56,74136.0,3.33,-27.51,-27.93,0,*74
1497049617.43,53764,20.56,74138.0,3.33,-27.45,-27.93,0,*76
1497049618.68,53765,20.5,74134.8,3.33,-27.45,-27.93,0,*77
1497049619.94,53766,20.56,74136.8,3.33,-27.45,-27.93,0,*74
1497049621.19,53767,20.56,74138.8,3.33,-27.45,-27.93,0,*75
1497049622.43,53768,20.56,74138.5,3.33,-27.29,-27.77,0,*7A
1497049623.71,53769,20.56,74138.0,3.33,-27.45,-27.99,0,*71
1497049624.96,53770,20.56,74140.5,3.33,-27.45,-27.93,0,*73
1497049626.24,53771,20.56,74140.0,3.33,-27.35,-27.83,0,*74
1497049627.51,53772,20.56,74138.8,3.31,-27.35,-27.83,0,*75
1497049628.78,53773,20.56,74136.8,3.31,-27.39,-27.83,0,*78
1497049630.03,53774,20.56,74138.0,3.31,-27.51,-27.99,0,*7A
1497049631.26,53775,20.56,74138.5,3.33,-27.51,-27.93,0,*73
1497049632.51,53776,20.56,74138.0,3.31,-27.51,-27.99,0,*78
1497049633.75,53777,20.56,74138.5,3.33,-27.35,-27.93,0,*73
1497049634.98,53778,20.56,74136.5,3.33,-27.51,-27.93,0,*7E
1497049636.23,53779,20.56,74136.8,3.31,-27.51,-28.05,0,*7D
1497049637.48,53780,20.5,74132.5,3.31,-27.55,-27.99,0,*75
1497049638.73,53781,20.56,74136.8,3.31,-27.51,-27.99,0,*70
1497049639.98,53782,20.56,74132.8,3.31,-27.55,-27.99,0,*77
1497049641.23,53783,20.56,74136.0,3.31,-27.55,-27.99,0,*76
1497049642.49,53784,20.56,74138.8,3.33,-27.51,-27.99,0,*77
1497049643.76,53785,20.56,74136.0,3.31,-27.45,-27.99,0,*71
1497049645.05,53786,20.56,74136.8,3.33,-27.45,-27.99,0,*70
1497049646.3,53787,20.56,74134.5,3.33,-27.51,-27.99,0,*74
1497049647.56,53788,20.56,74138.0,3.33,-27.45,-27.93,0,*74
1497049648.81,53789,20.56,74136.8,3.31,-27.51,-27.99,0,*78
1497049650.03,53790,20.56,74136.3,3.31,-27.51,-27.93,0,*7A
1497049651.31,53791,20.56,74140.0,3.33,-27.45,-27.99,0,*76
1497049652.54,53792,20.56,74132.8,3.31,-27.51,-27.89,0,*73
1497049653.82,53793,20.56,74136.5,3.33,-27.45,-27.83,0,*7F
1497049655.09,53794,20.56,74142.0,3.33,-27.35,-27.83,0,*7F
1497049656.34,53795,20.56,74136.3,3.31,-27.39,-27.89,0,*7A
1497049657.59,53796,20.56,74136.0,3.31,-27.39,-27.89,0,*79
1497049658.84,53797,20.56,74136.8,3.33,-27.45,-27.93,0,*7A
1497049660.11,53798,20.56,74136.3,3.31,-27.39,-27.83,0,*7D
1497049661.38,53799,20.56,74136.8,3.31,-27.39,-27.83,0,*7C
1497049662.62,53800,20.56,74136.8,3.33,-27.29,-27.77,0,*7B
1497049663.88,53801,20.56,74136.5,3.31,-27.35,-27.83,0,*7E
1497049665.15,53802,20.56,74136.5,3.31,-27.35,-27.83,0,*7D
1497049666.41,53803,20.56,74136.3,3.33,-27.29,-27.83,0,*73
1497049667.65,53804,20.56,74134.8,3.33,-27.29,-27.77,0,*7F
1497049668.89,53805,20.56,74136.0,3.31,-27.35,-27.89,0,*70
1497049670.14,53806,20.5,74134.3,3.31,-27.39,-27.89,0,*7F
1497049671.39,53807,20.56,74138.3,3.33,-27.35,-27.89,0,*70
1497049672.65,53808,20.56,74136.8,3.33,-27.29,-27.83,0,*78
1497049673.9,53809,20.56,74138.3,3.33,-27.35,-27.89,0,*7E
1497049675.18,53810,20.56,74136.8,3.33,-27.35,-27.83,0,*7C
1497049676.45,53811,20.56,74136.8,3.33,-27.35,-27.83,0,*7D
1497049677.71,53812,20.56,74138.8,3.33,-27.29,-27.83,0,*73
1497049678.99,53813,20.56,74136.3,3.33,-27.35,-27.83,0,*7F
1497049680.24,53814,20.56,74138.3,3.33,-27.35,-27.93,0,*79
1497049681.52,53815,20.56,74136.3,3.33,-27.45,-27.99,0,*75
1497049682.75,53816,20.56,74136.8,3.31,-27.51,-27.89,0,*70
1497049684.02,53817,20.5,74132.5,3.33,-27.35,-27.83,0,*7B
1497049685.27,53818,20.56,74136.8,3.31,-27.51,-27.83,0,*74
1497049686.52,53819,20.56,74134.3,3.31,-27.39,-27.89,0,*71
1497049687.79,53820,20.56,74138.8,3.33,-27.35,-27.83,0,*7F
1497049689.07,53821,20.56,74138.5,3.33,-27.35,-27.83,0,*7E
1497049690.32,53822,20.56,74136.8,3.33,-27.35,-27.93,0,*7C
1497049691.58,53823,20.56,74136.3,3.33,-27.29,-27.83,0,*71
1497049692.83,53824,20.56,74136.8,3.33,-27.35,-27.77,0,*70
1497049694.09,53825,20.56,74136.3,3.33,-27.29,-27.83,0,*77
1497049695.35,53826,20.56,74138.5,3.33,-27.29,-27.83,0,*74
1497049696.61,53827,20.56,74136.0,3.33,-27.29,-27.83,0,*75
1497049697.87,53828,20.56,74138.3,3.33,-27.29,-27.83,0,*7A
1497049699.1,53829,20.56,74138.8,3.33,-27.29,-27.77,0,*70
1497049700.35,53830,20.56,74136.8,3.31,-27.39,-27.89,0,*7A
1497049701.59,53831,20.56,74138.0,3.31,-27.39,-27.89,0,*7B
1497049702.85,53832,20.56,74138.0,3.33,-27.29,-27.83,0,*71
1497049704.13,53833,20.56,74136.8,3.33,-27.35,-27.83,0,*7D